Regional Weather Roundup
Issued by NWS

Home | Current Version | Previous Version | Text Only | Print | Product List | Glossary Off
Versions: 1 2 3 4 5 6 7 8 9 10 11 12 13 14 15 16 17 18 19 20 21 22 23 24 25 26 27 28 29 30 31 32 33 34 35 36 37 38 39 40 41 42 43 44 45 46 47 48 49 50

000
ASUS43 KLOT 301408
RWRIL

ILLINOIS REGIONAL WEATHER ROUNDUP
NATIONAL WEATHER SERVICE CHICAGO/ROMEOVILLE IL
900 AM CDT SUN APR 30 2017

NOTE: "FAIR" INDICATES FEW OR NO CLOUDS BELOW 12,000 FEET WITH NO
SIGNIFICANT WEATHER AND/OR OBSTRUCTIONS TO VISIBILITY.

* THESE STATIONS ARE NOT UNDER NWS QUALITY CONTROL. THEY ALSO MAY NOT
  REPORT WEATHER SUCH AS PRECIPITATION OR FOG.

ILZ001-002-007-009-015-016-024-301500-
NORTHWEST ILLINOIS

CITY           SKY/WX    TMP DP  RH WIND       PRES   REMARKS
MOLINE         CLOUDY    44  40  85 NE15      29.79F
STERLING*      CLOUDY    44  41  89 N8        29.83R
SAVANNA*       CLOUDY    42  40  90 NE16      29.83S
$$

ILZ003-004-008-010-011-017-018-301500-
NORTH CENTRAL ILLINOIS

CITY           SKY/WX    TMP DP  RH WIND       PRES   REMARKS
ROCKFORD       CLOUDY    44  39  82 NE21G28   29.82F
FREEPORT*      CLOUDY    40  39  95 NE14G23   29.85F
ROCHELLE*      CLOUDY    42  41  95 NE22      29.79S
DE KALB*       CLOUDY    42  41  97 NE18G24   29.78F
PERU*          CLOUDY    43  42  95 NE14      29.78R
$$

ILZ005-006-012>014-019>023-301500-
NORTHEAST ILLINOIS

CITY           SKY/WX    TMP DP  RH WIND       PRES   REMARKS
CHICAGO-OHARE  LGT RAIN  43  41  93 NE17      29.79F FOG
CHICAGO-MIDWAY LGT RAIN  45  44  97 E20       29.77F FOG
AURORA         CLOUDY    44  43  96 NE22G29   29.75F
LANSING*       LGT RAIN  46  46 100 E9        29.80F
JOLIET*        RAIN      47  46  98 E13       29.76F
WAUKEGAN       CLOUDY    41  41 100 NE20G25   29.82F FOG
DUPAGE AIRPORT LGT RAIN  43  43 100 NE15      29.76F
KANKAKEE*      DRIZZLE   49  49  98 CALM      29.77F
WHEELING       LGT RAIN  42  42 100 NE16G22   29.81F FOG
MORRIS*        LGT RAIN  46  45  96 E10G16    29.75F
ROMEOVILLE*    LGT RAIN  44  44 100 E16       29.76F
NORTHERLY ISL    N/A     44  42  93 NE20        N/A
$$

LMZ740>746-301500-
SOUTHERN LAKE MICHIGAN

STATION/POSITION SKY/WX   TEMP    WIND        PRES    VSBY  WAVE
                          AIR SEA DIR/SP/G                  HT/PER
                          (F)     (DEG/KT/KT) (MB)    (MI)  (FT/S)
SOUTHERN BUOY              41 40   60/ 16/ 19 1013.9          4/ 5
HARRISON CRIB              43      50/ 22/ 24   N/A
BURNHAM HARBOR             44      50/ 17/ 21   N/A
CALUMET HARBOR             45      40/ 13/ 19 1008.8F
BURNS HARBOR               47      70/ 11/ 13 1011.2
MICHIGAN CITY              46      70/  9/ 12   N/A
MICHIGAN CITY 6N           46 48                N/A           3/ 6
ST. JOSEPH                 46 46  110/ 12/ 16 1011.1          2/ 6
$$

ILZ025>027-034>036-040-047-049-050-058-095>099-301500-
WEST-CENTRAL ILLINOIS

CITY           SKY/WX    TMP DP  RH WIND       PRES   REMARKS
QUINCY         CLOUDY    48  47  96 NE12      29.73R FOG
GALESBURG*     HVY RAIN  44  44  99 NE12      29.80R
MACOMB*        CLOUDY    46  46 100 N8        29.80R FOG
JACKSONVILLE*  CLOUDY    51  51  98 CALM      29.76R
PITTSFIELD*    CLOUDY    49  49 100 N5        29.75R FOG
$$

ILZ028>032-037-038-041>044-048-051>054-059>061-301500-
CENTRAL ILLINOIS

CITY           SKY/WX    TMP DP  RH WIND       PRES   REMARKS
PONTIAC        CLOUDY    51  50  98 E18G26    29.73F
BLOOMINGTON    CLOUDY    53  53 100 E16       29.70F FOG
DECATUR        CLOUDY    58  58 100 SE10      29.73R
PEORIA         CLOUDY    50  49  96 N7        29.76R
LACON*         CLOUDY    45  45 100 NE9G16    29.73S
LINCOLN*       CLOUDY    56  56 100 SE10      29.70S
SPRINGFIELD    CLOUDY    55  54  96 SE12      29.71F FOG
TAYLORVILLE    CLOUDY    56  56  99 SE8       29.72F
$$

ILZ033-039-045-046-055>057-062-063-301500-
EAST-CENTRAL ILLINOIS

CITY           SKY/WX    TMP DP  RH WIND       PRES   REMARKS
CHAMPAIGN      CLOUDY    59  57  93 E10       29.74F
RANTOUL*       CLOUDY    57  57  99 E13       29.73F
MATTOON        LGT RAIN  59  58  96 SE10      29.74F
PARIS*         RAIN     N/A N/A N/A SW17      29.77S
$$

ILZ079-100>102-301500-
SOUTHWEST ILLINOIS

CITY           SKY/WX    TMP DP  RH WIND       PRES   REMARKS
ALTON          RAIN      59  57  94 SE14      29.74R
BELLEVILLE     RAIN      58  58 100 SE9       29.77R
CAHOKIA*       RAIN      59  57  93 SE14G22   29.76R FOG
SPARTA*        HVY RAIN  63  63 100 CALM      29.80R
$$

ILZ064>066-069>071-074>076-080>082-084>086-088>090-092>094-301500-
SOUTH-CENTRAL ILLINOIS

CITY           SKY/WX    TMP DP  RH WIND       PRES   REMARKS
CARBONDALE     RAIN      63  63 100 SE8       29.80S FOG
CAIRO*         RAIN      64  64 100 SE7       29.82R
EFFINGHAM*     LGT RAIN  59  59 100 SE6       29.80F
MARION         HVY RAIN  64  64 100 SE6       29.81F
MT. VERNON     RAIN      63  62  97 SE6       29.81R FOG
CENTRALIA*     RAIN      61  61 100 CALM      29.78F
SALEM*         HVY RAIN  61  59  94 CALM      29.79F
METROPOLIS*    CLOUDY    64  64  97 E6        29.84S
$$

ILZ067-068-072-073-078-083-087-091-301500-
SOUTHEAST ILLINOIS

CITY           SKY/WX    TMP DP  RH WIND       PRES   REMARKS
LAWRENCEVILLE  LGT RAIN  66  64  93 S18       29.85R
FLORA*         RAIN      64  63  96 S7        29.83R
FAIRFIELD*     HVY RAIN  64  64 100 S6        29.83R
HARRISBURG*    HVY RAIN  64  64  98 SE8       29.84S
ROBINSON*      RAIN      64  63  96 S10       29.85R
CARMI*         RAIN      65  65 100 SE14      29.85R
$$

ABBREVIATIONS USED IN REMARKS
   TC - TEMPERATURE IN CELSIUS
  WCI - WIND CHILL INDEX
   HX - HEAT INDEX
  VSB - VISIBILITY
$$




USA.gov is the U.S. government's official web portal to all federal, state and local government web resources and services.